Погода в Дили

Восточный Тимор     8°33′33″S   125°33′37″E
темп.,
°C
ветер,
м/с
пор.,
м/с
влажн.,
%
обл.,
%
осадки,
мм/ч
давл.,
гПа
погр.,
м
22 января, сб
сб2200:00+27зюз5675100 0.0 1008453
03:00+27зюз4676100 0.0 1006471
06:00+26зюз2373100 0.0 1006399
09:00+27зсз1270100 0.0 1008438
12:00+28сз227296 0.0 1008570
15:00+28сз447488 0.4 1006627
18:00+28зсз4475100 0.3 1005518
21:00+28з347794 0.4 1008445
23 января, вс
вс2300:00+27ююз217367 0.0 1008147
03:00+26ююз226997 0.0 1006168
06:00+27зюз126912 0.0 1006223
09:00+28зюз116685 0.0 1008278
12:00+28зсз447199 0.0 1007561
15:00+28зсз5576100 0.1 1005611
18:00+28з227497 0.1 1005493
21:00+27юз117577 0.1 1007229
24 января, пн
пн2400:00+27зюз117689 0.0 1007207
03:00+26юв2178100 0.0 1005133
06:00+26юв1175100 0.0 1006137
09:00+27с1172100 0.0 1007264
12:00+28с2275100 0.0 1006469
15:00+28ссз327573 0.2 1004556
18:00+28зсз2273100 0.3 1004467
21:00+28з0076100 0.3 1006187
25 января, вт
вт2500:00+27с117793 0.1 1006291
03:00+27вюв017895 0.7 1004180
06:00+27юв1179100 0.2 1006173
09:00+28св1176100 0.3 1007394
12:00+28ссз437699 0.8 1006640
15:00+29ссз317339 1.7 1004614
18:00+29зсз4475100 0.6 1004412
21:00+28з2380100 1.0 1006104
26 января, ср
ср2600:00+27зсз117897 0.3 1006106
03:00+27зсз1178100 0.9 1005276
06:00+27св1178100 0.4 1006271
09:00+28св2276100 0.9 1008350
12:00+28ссз327385 0.2 1007616
15:00+28сз4374100 0.6 1005536
18:00+28з227495 1.1 1005441
21:00+27сз1178100 3.3 1007139